Location: Unspecified
(48.6244°N, 0.0000°E)
Time: 12:25:03
(UTC+00:00)

ISS - Visible Passes

Search period start: 23 October 2019 00:00
Search period end: 02 November 2019 00:00
Orbit: 411 x 421 km, 51.6° (Epoch: 23 October)

Date Brightness Start Highest point End Pass type
(mag) Time Alt. Az. Time Alt. Az. Time Alt. Az.
23 Oct -0.5 05:37:49 10° SSE 05:38:52 11° SE 05:39:54 10° ESE visible
25 Oct -1.5 05:35:17 10° SSW 05:38:05 25° SE 05:40:54 10° E visible
26 Oct -1.0 04:47:31 10° S 04:49:42 16° SE 04:51:53 10° E visible
27 Oct -0.7 04:00:54 10° SE 04:01:21 10° SE 04:01:53 10° SE visible
27 Oct -3.0 05:34:10 10° SW 05:37:27 52° SSE 05:40:45 10° ENE visible
28 Oct -2.4 04:47:42 25° S 04:48:57 34° SE 04:52:03 10° E visible
29 Oct -1.3 04:01:27 20° ESE 04:01:27 20° ESE 04:03:13 10° E visible
29 Oct -3.8 05:34:21 16° WSW 05:36:56 84° NNW 05:40:19 10° ENE visible
30 Oct -3.7 04:47:58 63° SSW 04:48:19 71° SSE 04:51:41 10° ENE visible
31 Oct -1.3 04:01:29 23° E 04:01:29 23° E 04:03:01 10° ENE visible
31 Oct -3.5 05:34:23 20° W 05:36:29 56° N 05:39:49 10° ENE visible
01 Nov -3.7 04:47:51 68° N 04:47:51 68° N 04:51:09 10° ENE visible
